| time (UTC) | temp C | wind direction | speed KPH | gust KPH | rain 1hr cm | rain 24hr cm | rain mn cm | humidity % | barometer mb |
| 20260509123116 | 12 | 259 | 3.2 | 8.0 | 0.00 | 0.00 | 0.00 | 62 | 997.1 |
| 20260509121604 | 12 | 215 | 0.0 | 3.2 | 0.00 | 0.00 | 0.00 | 60 | 997.2 |
| 20260509120045 | 12 | 254 | 0.0 | 4.8 | 0.00 | 0.00 | 0.00 | 61 | 997.2 |
| 20260509114544 | 12 | 240 | 4.8 | 16.1 | 0.00 | 0.00 | 0.00 | 61 | 997.3 |
| 20260509113042 | 11 | 260 | 0.0 | 4.8 | 0.00 | 0.00 | 0.00 | 61 | 997.4 |
| 20260509111555 | 11 | 255 | 3.2 | 4.8 | 0.00 | 0.00 | 0.00 | 65 | 997.4 |
| 20260509110036 | 11 | 236 | 4.8 | 9.7 | 0.00 | 0.00 | 0.00 | 67 | 997.6 |
| 20260509104542 | 7 | 108 | 0.0 | 0.0 | 0.00 | 0.00 | 0.00 | 69 | 997.9 |
| 20260509103035 | 8 | 110 | 0.0 | 1.6 | 0.00 | 0.00 | 0.00 | 63 | 997.9 |
| 20260509101543 | 8 | 250 | 0.0 | 0.0 | 0.00 | 0.00 | 0.00 | 58 | 998.2 |
| 20260509100029 | 10 | 250 | 0.0 | 1.6 | 0.00 | 0.00 | 0.00 | 56 | 998.5 |
| 20260509094535 | 10 | 250 | 0.0 | 1.6 | 0.00 | 0.00 | 0.00 | 57 | 998.8 |
| 20260509093021 | 8 | 261 | 1.6 | 9.7 | 0.00 | 0.00 | 0.00 | 67 | 999.2 |
| 20260509091534 | 7 | 136 | 0.0 | 1.6 | 0.00 | 0.00 | 0.00 | 69 | 999.2 |
| 20260509090022 | 7 | 240 | 0.0 | 3.2 | 0.00 | 0.00 | 0.00 | 73 | 999.4 |
| 20260509084521 | 6 | 131 | 0.0 | 1.6 | 0.00 | 0.00 | 0.00 | 78 | 999.5 |
| 20260509083016 | 6 | 131 | 0.0 | 0.0 | 0.00 | 0.00 | 0.00 | 81 | 999.6 |
| 20260509081524 | 6 | 131 | 0.0 | 0.0 | 0.00 | 0.00 | 0.00 | 83 | 999.7 |
| 20260509080012 | 6 | 131 | 0.0 | 0.0 | 0.00 | 0.00 | 0.00 | 81 | 999.8 |
| 20260509074509 | 6 | 131 | 0.0 | 0.0 | 0.00 | 0.00 | 0.00 | 81 | 1000.1 |
| 20260509073006 | 6 | 131 | 0.0 | 0.0 | 0.00 | 0.00 | 0.00 | 83 | 1000.4 |
| 20260509071502 | 6 | 131 | 0.0 | 0.0 | 0.00 | 0.00 | 0.00 | 80 | 1000.7 |
| 20260509070101 | 7 | 134 | 0.0 | 0.0 | 0.00 | 0.00 | 0.00 | 81 | 1000.9 |
| 20260509064618 | 7 | 134 | 0.0 | 0.0 | 0.00 | 0.00 | 0.00 | 80 | 1001.4 |
| 20260509063055 | 7 | 134 | 0.0 | 0.0 | 0.00 | 0.00 | 0.00 | 76 | 1001.6 |
| 20260509061554 | 7 | 134 | 0.0 | 0.0 | 0.00 | 0.00 | 0.00 | 77 | 1001.8 |
| 20260509060051 | 7 | 134 | 0.0 | 0.0 | 0.00 | 0.00 | 0.00 | 78 | 1002.2 |
| 20260509054559 | 7 | 134 | 0.0 | 0.0 | 0.00 | 0.00 | 0.00 | 78 | 1002.7 |
| 20260509053050 | 7 | 134 | 0.0 | 0.0 | 0.00 | 0.00 | 0.00 | 76 | 1002.8 |
| 20260509051544 | 7 | 134 | 0.0 | 0.0 | 0.00 | 0.00 | 0.00 | 71 | 1002.9 |
| 20260509050042 | 7 | 134 | 0.0 | 0.0 | 0.00 | 0.00 | 0.00 | 68 | 1003.2 |
| 20260509044539 | 7 | 134 | 0.0 | 0.0 | 0.00 | 0.00 | 0.00 | 66 | 1003.3 |
| 20260509043037 | 8 | 134 | 0.0 | 0.0 | 0.00 | 0.00 | 0.00 | 64 | 1003.5 |
| 20260509041558 | 8 | 134 | 0.0 | 0.0 | 0.00 | 0.00 | 0.00 | 62 | 1003.8 |
| 20260509040032 | 8 | 134 | 0.0 | 0.0 | 0.00 | 0.00 | 0.00 | 63 | 1003.9 |
| 20260509034528 | 8 | 134 | 0.0 | 0.0 | 0.00 | 0.00 | 0.00 | 67 | 1004.0 |
| 20260509033028 | 8 | 134 | 0.0 | 0.0 | 0.00 | 0.00 | 0.00 | 66 | 1004.1 |
| 20260509031534 | 8 | 134 | 0.0 | 0.0 | 0.00 | 0.00 | 0.00 | 66 | 1004.2 |
| 20260509030026 | 8 | 134 | 0.0 | 1.6 | 0.00 | 0.00 | 0.00 | 66 | 1004.4 |
| 20260509024523 | 8 | 242 | 0.0 | 0.0 | 0.00 | 0.00 | 0.00 | 65 | 1004.7 |
| 20260509023027 | 8 | 242 | 0.0 | 0.0 | 0.00 | 0.00 | 0.00 | 66 | 1004.6 |
| 20260509021530 | 8 | 242 | 0.0 | 0.0 | 0.00 | 0.00 | 0.00 | 67 | 1004.6 |
| 20260509020039 | 8 | 242 | 0.0 | 0.0 | 0.00 | 0.00 | 0.00 | 67 | 1004.7 |
| 20260509014522 | 8 | 242 | 0.0 | 0.0 | 0.00 | 0.00 | 0.00 | 62 | 1004.7 |
| 20260509013034 | 9 | 242 | 0.0 | 0.0 | 0.00 | 0.00 | 0.00 | 60 | 1004.6 |
| 20260509011520 | 10 | 242 | 0.0 | 0.0 | 0.00 | 0.00 | 0.00 | 59 | 1004.6 |
| 20260509010019 | 10 | 242 | 0.0 | 6.4 | 0.00 | 0.00 | 0.00 | 56 | 1004.7 |
| 20260509004520 | 11 | 222 | 0.0 | 4.8 | 0.00 | 0.00 | 0.00 | 56 | 1004.7 |
| 20260509003018 | 11 | 265 | 4.8 | 6.4 | 0.00 | 0.00 | 0.00 | 55 | 1004.7 |
| 20260509001517 | 11 | 259 | 4.8 | 6.4 | 0.00 | 0.00 | 0.00 | 53 | 1004.6 |
| 20260509000016 | 11 | 246 | 4.8 | 6.4 | 0.00 | 0.00 | 0.00 | 54 | 1004.7 |
| 20260508234514 | 12 | 257 | 6.4 | 8.0 | 0.00 | 0.00 | 0.00 | 55 | 1004.9 |
| 20260508233011 | 12 | 248 | 6.4 | 8.0 | 0.00 | 0.00 | 0.00 | 55 | 1005.1 |
| 20260508231510 | 12 | 238 | 4.8 | 8.0 | 0.00 | 0.00 | 0.00 | 52 | 1005.1 |
| 20260508230008 | 12 | 243 | 4.8 | 8.0 | 0.00 | 0.00 | 0.00 | 49 | 1005.2 |
| 20260508224507 | 12 | 257 | 6.4 | 9.7 | 0.00 | 0.00 | 0.00 | 51 | 1005.2 |
| 20260508223004 | 12 | 247 | 6.4 | 9.7 | 0.00 | 0.00 | 0.00 | 51 | 1005.5 |
| 20260508221502 | 12 | 261 | 8.0 | 14.5 | 0.00 | 0.00 | 0.00 | 51 | 1005.6 |
| 20260508220001 | 12 | 258 | 9.7 | 16.1 | 0.00 | 0.00 | 0.00 | 50 | 1005.7 |
| 20260508214558 | 11 | 255 | 9.7 | 17.7 | 0.00 | 0.00 | 0.00 | 57 | 1005.9 |
| 20260508213055 | 11 | 274 | 9.7 | 17.7 | 0.00 | 0.00 | 0.00 | 54 | 1005.9 |
| 20260508211556 | 11 | 264 | 11.3 | 19.3 | 0.00 | 0.00 | 0.00 | 54 | 1006.0 |
| 20260508210052 | 11 | 261 | 12.9 | 16.1 | 0.00 | 0.00 | 0.00 | 55 | 1006.1 |
| 20260508204553 | 10 | 271 | 11.3 | 24.1 | 0.00 | 0.00 | 0.00 | 59 | 1006.3 |
| 20260508203048 | 10 | 264 | 16.1 | 24.1 | 0.00 | 0.00 | 0.00 | 61 | 1006.5 |
| 20260508201548 | 10 | 251 | 17.7 | 22.5 | 0.00 | 0.00 | 0.00 | 61 | 1006.7 |
| 20260508200103 | 10 | 272 | 16.1 | 22.5 | 0.00 | 0.00 | 0.00 | 64 | 1006.8 |
| 20260508194542 | 10 | 251 | 17.7 | 25.7 | 0.00 | 0.00 | 0.00 | 62 | 1007.0 |
| 20260508193058 | 10 | 267 | 19.3 | 25.7 | 0.00 | 0.00 | 0.00 | 60 | 1007.1 |
| 20260508191541 | 10 | 261 | 17.7 | 29.0 | 0.00 | 0.00 | 0.00 | 59 | 1007.2 |
| 20260508190041 | 11 | 283 | 12.9 | 27.4 | 0.00 | 0.00 | 0.00 | 59 | 1007.1 |
| 20260508184539 | 11 | 266 | 11.3 | 24.1 | 0.00 | 0.00 | 0.00 | 57 | 1007.1 |
| 20260508183037 | 11 | 272 | 16.1 | 32.2 | 0.00 | 0.00 | 0.00 | 58 | 1007.1 |
| 20260508181546 | 11 | 233 | 14.5 | 33.8 | 0.00 | 0.00 | 0.00 | 52 | 1007.2 |
| 20260508180036 | 11 | 264 | 17.7 | 27.4 | 0.00 | 0.00 | 0.00 | 55 | 1007.3 |
| 20260508174531 | 11 | 266 | 14.5 | 25.7 | 0.00 | 0.00 | 0.00 | 53 | 1007.5 |
| 20260508173029 | 11 | 266 | 12.9 | 27.4 | 0.00 | 0.00 | 0.00 | 55 | 1007.8 |
| 20260508171527 | 10 | 273 | 17.7 | 29.0 | 0.00 | 0.00 | 0.00 | 55 | 1007.9 |
| 20260508170025 | 10 | 273 | 20.9 | 27.4 | 0.00 | 0.00 | 0.00 | 55 | 1008.0 |
| 20260508164521 | 10 | 250 | 16.1 | 25.7 | 0.00 | 0.00 | 0.00 | 56 | 1008.2 |
| 20260508163023 | 10 | 262 | 12.9 | 24.1 | 0.00 | 0.00 | 0.00 | 59 | 1008.5 |
| 20260508161517 | 10 | 268 | 14.5 | 25.7 | 0.00 | 0.00 | 0.00 | 59 | 1008.5 |
| 20260508160013 | 9 | 268 | 14.5 | 25.7 | 0.00 | 0.00 | 0.00 | 64 | 1008.7 |
| 20260508154537 | 9 | 266 | 14.5 | 20.9 | 0.00 | 0.00 | 0.00 | 62 | 1008.8 |
| 20260508153012 | 9 | 270 | 16.1 | 24.1 | 0.00 | 0.00 | 0.00 | 65 | 1009.0 |
| 20260508151512 | 9 | 275 | 11.3 | 20.9 | 0.00 | 0.00 | 0.00 | 61 | 1009.0 |
| 20260508150006 | 9 | 257 | 6.4 | 19.3 | 0.00 | 0.00 | 0.00 | 67 | 1009.0 |
| 20260508144505 | 8 | 266 | 8.0 | 16.1 | 0.00 | 0.00 | 0.00 | 66 | 1009.1 |
| 20260508143002 | 8 | 271 | 8.0 | 17.7 | 0.00 | 0.00 | 0.00 | 68 | 1009.2 |
| 20260508141605 | 8 | 264 | 3.2 | 11.3 | 0.00 | 0.00 | 0.00 | 68 | 1009.4 |
| 20260508140055 | 7 | 248 | 8.0 | 14.5 | 0.00 | 0.00 | 0.00 | 69 | 1009.4 |
| 20260508134612 | 7 | 252 | 8.0 | 16.1 | 0.00 | 0.00 | 0.00 | 71 | 1009.3 |
| 20260508133057 | 6 | 262 | 4.8 | 9.7 | 0.00 | 0.00 | 0.00 | 74 | 1009.7 |
| 20260508131548 | 6 | 269 | 6.4 | 11.3 | 0.00 | 0.00 | 0.00 | 75 | 1009.7 |
| 20260508130041 | 5 | 254 | 4.8 | 9.7 | 0.00 | 0.00 | 0.00 | 77 | 1009.7 |
| 20260508124537 | 5 | 261 | 4.8 | 6.4 | 0.00 | 0.00 | 0.00 | 75 | 1009.8 |